Find Starlink 35617

NORAD ID: 66422 Int'l Des: 2025-259 Owner: SPXS Country: US Constellation: starlink operational
LEOCIRCULAR

Current View

Loading 3D Globe...

About Starlink 35617

Description loading...

Upcoming Passes

Passes for default location (London). Set your location on the main map for personalized predictions.

Altitude History

Loading altitude history...

Two-Line Element Set

1 66422U 25259A 26146.20323357 .00026528 00000-0 96945-3 0 9996
2 66422 43.0007 196.8026 0001409 257.6139 102.4555 15.27600332 31347
Epoch: May 26, 2026 • Age: 11 hours

Current Status

Altitude 483.0 km
Velocity 7.63 km/s
Sub-Earth Point 20.89°N, 93.98°E
Launch Date Nov 11, 2025
Age 0.5 years
Type internet

Technical Details

Classification Payload
Mass 575.00 kg
Dry Mass 530.00 kg
Total Mass 575.00 kg
Length 0.30 m
Diameter 4.10 m
Span 29.00 m
Shape Box + pan
Manufacturer SPXS
Bus Type Starlink V2MO
Phase Status In Orbit
Owner/State SPXS/US

Most Searched